Akron Canton, OH

10:11 PM EDT on April 26, 2017 (GMT -0400)
Akron-Canton Regional

Weather History for KCAK - June, 2013

Change the Weather History Date:

Sunday, June 30, 2013

  Actual Average Record
Temperature  
Mean Temperature 72 °F 71 °F  
Max Temperature 80 °F 81 °F 96 °F (1913)
Min Temperature 63 °F 61 °F 46 °F (1899)
Degree Days  
Heating Degree Days 0 0  
Month to date heating degree days 27 51  
Since 1 June heating degree days 27 49  
Since 1 July heating degree days 5829 6150  
Cooling Degree Days 7 7  
Month to date cooling degree days 161 135  
Year to date cooling degree days 267 177  
Since 1 June cooling degree days 161 135  
Growing Degree Days 22 (Base 50)    
Moisture  
Dew Point 64 °F    
Average Humidity 76    
Maximum Humidity 93    
Minimum Humidity 58    
Precipitation  
Precipitation 0.00 in 0.13 in 0.68 in (1977)
Month to date precipitation 5.91 3.83  
Year to date precipitation 18.17 19.56  
Snow  
Snow 0.00 in 0.00 in - ()
Month to date snowfall 0.0 0.0  
Since 1 June snowfall 0.0 0.0  
Since 1 July snowfall 47.2 47.5  
Snow Depth 0.00 in    
Sea Level Pressure  
Sea Level Pressure 29.78 in    
Wind  
Wind Speed 7 mph (NE)    
Max Wind Speed 15 mph    
Max Gust Speed 18 mph    
Visibility 6 miles    
Events Fog    
T = Trace of Precipitation, MM = Missing Value Source: NWS Daily Summary

Daily Weather History Graph

Daily Weather History Graph

Search for Another Location

Airport or City:

Trip Planner

Search our weather history database for the weather conditions in past years. The results will help you decide how hot, cold, wet, or windy it might be!

Date:

Astronomy

Jun. 30, 2013 Rise Set
Actual Time 5:57 AM EDT 9:01 PM EDT
Civil Twilight 5:23 AM EDT 9:34 PM EDT
Nautical Twilight 4:41 AM EDT 10:17 PM EDT
Astronomical Twilight 3:50 AM EDT 11:07 PM EDT
Moon 12:57 AM EDT (6/30) 2:13 PM EDT (6/30)
Length of Visible Light 16h 11m
Length of Day
15h 04m
Last Quarter, 45% of the Moon is Illuminated
Jun 30
Last Quarter
Jul 8
New
Jul 15
First Quarter
Jul 22
Full
Jul 29
Last Quarter

Hourly Weather History & Observations

Time (EDT) Temp. Heat Index Dew Point Humidity Pressure Visibility Wind Dir Wind Speed Gust Speed Precip Events Conditions
12:51 AM 66.0 °F - 64.0 °F 93% 29.70 in 6.0 mi NE 4.6 mph - N/A   Mostly Cloudy
1:51 AM 64.9 °F - 63.0 °F 93% 29.70 in 4.0 mi NE 3.5 mph - N/A   Mostly Cloudy
2:44 AM 64.4 °F - 62.6 °F 94% 29.73 in 1.0 mi NE 5.8 mph - N/A   Scattered Clouds
2:46 AM 64.4 °F - 62.6 °F 94% 29.73 in 0.8 mi NNE 4.6 mph - N/A   Mist
2:51 AM 64.9 °F - 63.0 °F 93% 29.71 in 0.5 mi NNE 5.8 mph - N/A Fog Fog
3:51 AM 64.0 °F - 62.1 °F 93% 29.71 in 0.5 mi NNE 4.6 mph - N/A   Mostly Cloudy
4:51 AM 63.0 °F - 61.0 °F 93% 29.71 in 2.0 mi NNE 5.8 mph - N/A   Mostly Cloudy
5:03 AM 64.4 °F - 62.6 °F 94% 29.73 in 2.0 mi NNE 4.6 mph - N/A   Mostly Cloudy
5:51 AM 64.0 °F - 62.1 °F 93% 29.73 in 2.0 mi NE 5.8 mph - N/A   Mostly Cloudy
6:25 AM 64.4 °F - 62.6 °F 94% 29.75 in 3.0 mi ENE 4.6 mph - N/A   Overcast
6:51 AM 64.9 °F - 63.0 °F 93% 29.74 in 3.0 mi ENE 4.6 mph - N/A   Mostly Cloudy
7:10 AM 66.2 °F - 62.6 °F 88% 29.76 in 3.0 mi NE 8.1 mph - N/A   Mostly Cloudy
7:51 AM 66.9 °F - 63.0 °F 87% 29.76 in 3.0 mi East 9.2 mph - N/A   Mostly Cloudy
8:23 AM 66.2 °F - 62.6 °F 88% 29.79 in 3.0 mi ENE 9.2 mph - N/A   Mostly Cloudy
8:51 AM 68.0 °F - 64.0 °F 87% 29.78 in 3.0 mi NE 6.9 mph - N/A   Mostly Cloudy
9:51 AM 69.1 °F - 64.0 °F 84% 29.78 in 3.0 mi ENE 6.9 mph - N/A   Overcast
10:51 AM 71.1 °F - 64.9 °F 81% 29.79 in 6.0 mi ENE 4.6 mph - N/A   Mostly Cloudy
11:23 AM 73.4 °F - 66.2 °F 78% 29.81 in 7.0 mi NE 6.9 mph - N/A   Mostly Cloudy
11:51 AM 73.9 °F - 64.9 °F 73% 29.80 in 7.0 mi Calm Calm - N/A   Mostly Cloudy
12:51 PM 75.9 °F - 64.9 °F 69% 29.79 in 8.0 mi NNE 5.8 mph - N/A   Mostly Cloudy
1:51 PM 78.1 °F - 66.0 °F 66% 29.79 in 8.0 mi North 8.1 mph - N/A   Mostly Cloudy
2:51 PM 79.0 °F - 64.9 °F 62% 29.79 in 10.0 mi NE 8.1 mph - N/A   Scattered Clouds
3:51 PM 80.1 °F 81.9 °F 64.9 °F 60% 29.78 in 10.0 mi NNE 10.4 mph - N/A   Mostly Cloudy
4:51 PM 80.1 °F 81.7 °F 64.0 °F 58% 29.79 in 10.0 mi North 9.2 mph - N/A   Scattered Clouds
5:51 PM 78.1 °F - 64.9 °F 64% 29.80 in 10.0 mi North 12.7 mph - N/A   Mostly Cloudy
6:51 PM 75.0 °F - 64.0 °F 69% 29.81 in 10.0 mi NE 11.5 mph - N/A   Mostly Cloudy
7:51 PM 73.9 °F - 64.0 °F 71% 29.84 in 9.0 mi NNE 6.9 mph - N/A   Mostly Cloudy
8:51 PM 72.0 °F - 63.0 °F 73% 29.84 in 9.0 mi NE 8.1 mph - N/A   Mostly Cloudy
9:51 PM 71.1 °F - 62.1 °F 73% 29.86 in 10.0 mi NE 9.2 mph - N/A   Mostly Cloudy
10:51 PM 69.1 °F - 62.1 °F 78% 29.88 in 9.0 mi NE 10.4 mph - N/A   Overcast
11:51 PM 66.9 °F - 61.0 °F 81% 29.87 in 10.0 mi NNE 9.2 mph - N/A   Overcast